Regional Weather Roundup
Issued by NWS Upton, NY

Current Version | Previous Version | Graphics & Text | Print | Product List | Glossary Off
Versions: 1 2 3 4 5 6 7 8 9 10 11 12 13 14 15 16 17 18 19 20 21 22 23 24

000
ASUS41 KOKX 220105
RWROKX

Regional Weather Roundup
National Weather Service New York NY
900 PM EDT MON MAY 21 2018

Note: "FAIR" indicates few or no clouds below 12,000 feet with no
significant weather and/or obstructions to visibility.

NYZ071-072-176-178-NJZ106-104-220200-
New York City Metro Area

CITY           SKY/WX    TMP DP  RH WIND       PRES   REMARKS
Central Park   FAIR      66  46  48 CALM      30.17F
Bronx Bot Gard   N/A     63  48  59 S5        30.18R
Bronx Lehman C   N/A     66  48  52 S8          N/A
LaGuardia Arpt MOCLDY    66  48  52 S9        30.15S
Queens College   N/A     63  50  63 S10         N/A
Kennedy Intl   MOCLDY    60  53  77 S12       30.17S
Breezy Point     N/A     59 N/A N/A S9          N/A
Brooklyn Coll    N/A     63  52  67 SE7         N/A
Staten Island    N/A     66  52  59 S9          N/A
Newark/Liberty MOCLDY    68  51  54 S8        30.15R
Teterboro      FAIR      68  47  46 S7        30.14S
$$

NYZ177-179-078>081-220200-
Long Island New York

CITY           SKY/WX    TMP DP  RH WIND       PRES   REMARKS
Jones Beach      N/A     57 N/A N/A SW3         N/A
Wantagh          N/A     59  52  77 SW3         N/A
Hempstead        N/A     61  50  67 S2        30.20S
Matinecock Pt    N/A     63 N/A N/A SW5         N/A
Farmingdale    FAIR      59  49  69 SW7       30.17R
MacArthur/ISP  FAIR      59  51  75 SW7       30.17R
Stony Brook      N/A     61  50  67 S3          N/A
Shirley        FAIR      59  52  77 SW6       30.17R
Mt Sinai Harb    N/A    N/A N/A N/A S9          N/A
Westhampton    FAIR      58  47  66 S6        30.18R
East Hampton   FAIR      57  49  74 SW5       30.17R
Southold         N/A     59  48  67 SW5         N/A
Montauk          N/A     58  51  78 VRB3      30.17R
$$

NYZ052-065-067-220200-
Hudson Valley

CITY           SKY/WX    TMP DP  RH WIND       PRES   REMARKS
White Plains   FAIR      60  49  66 S6        30.15S
Larchmont Harb   N/A     61 N/A N/A S9          N/A
Croton On Huds   N/A     68 N/A N/A SE3         N/A
Somers           N/A     63  50  63 S5          N/A
Brewster         N/A     63  52  67 E1          N/A
Newburgh       CLEAR     70  48  46 VRB5      30.14S
Montgomery     FAIR      61  52  72 S8        30.11S
Otisville        N/A     61  50  67 NE1         N/A
Warwick          N/A     68  52  56 S9          N/A
Suffern          N/A     66  48  52 S2          N/A
Poughkeepsie   FAIR      65  49  56 SE3       30.12R
Albany         MOCLDY    68  43  40 W5        30.13R
$$

NJZ001-105-106-008-010-013-015-019>022-104-220200-
New Jersey

CITY           SKY/WX    TMP DP  RH WIND       PRES   REMARKS
Newark/Liberty MOCLDY    68  51  54 S8        30.15R
Teterboro      FAIR      68  47  46 S7        30.14S
Caldwell       FAIR      70  51  51 CALM      30.14S
Somerville     FAIR      64  55  72 S5        30.12S
Linden         FAIR      68  49  50 S7        30.15S
Perth Amboy      N/A     66 N/A N/A S5          N/A
Sussex         FAIR      63  53  70 CALM      30.13S
Andover          N/A     62  55  77 CALM      30.14S
Trenton        FAIR      66  52  60 S7        30.15S
Millville      FAIR      62  53  72 S5        30.18R
Atlantic City  FAIR      61  52  72 S5        30.18S
Wrightstown    CLEAR     61  50  67 CALM      30.14
Toms River     FAIR      58  52  80 CALM      30.18S
Belmar         FAIR      60  49  66 S5        30.18S
$$

PAZ047>061-062-071-220200-
Eastern Pennsylvania

CITY           SKY/WX    TMP DP  RH WIND       PRES   REMARKS
Philadelphia   FAIR      68  53  58 SE8       30.16R
Allentown      FAIR      67  48  50 S6        30.14R
Scranton       FAIR      64  48  56 E7        30.14S
$$

CTZ002-004>006-009-010-012-RIZ004-006-007-MAZ004-011-015-220200-
Southern New England

 In CT

CITY           SKY/WX    TMP DP  RH WIND       PRES   REMARKS
Bradley Intl   FAIR      68  43  40 SW5       30.13R
Hartford       FAIR      67  48  50 S8        30.14R
Danbury        FAIR      65  50  58 SE6       30.16R
Wtrbury/Oxford FAIR      64  49  57 S6        30.17R
Norwalk Harbor   N/A     63 N/A N/A SW12        N/A
Bridgeport     FAIR      63  52  67 SW12      30.16R
Meriden        FAIR      64  52  64 S3        30.15R
New Haven      FAIR      60  54  80 SW5       30.16R
Chester        FAIR      61  52  72 VRB5      30.17R
Groton         FAIR      59  50  72 W8        30.15R
Willimantic    FAIR      66  48  52 SW6       30.14R

 In RI

CITY           SKY/WX    TMP DP  RH WIND       PRES   REMARKS
Providence     FAIR      61  48  62 SW6       30.14R
Block Island     N/A    N/A N/A N/A MISG        N/A
Westerly       FAIR      59  51  75 SW5       30.16R

In MA

CITY           SKY/WX    TMP DP  RH WIND       PRES   REMARKS
Boston         FAIR      68  49  50 SW10      30.10R
Worcester      FAIR      65  45  48 W9        30.14R
Westfield      FAIR      60  51  72 CALM      30.13R
Provincetown   FAIR      57  47  69 S10       30.14R
Nantucket      FAIR      50  50 100 S6        30.16R
$$

ANZ330-335-338-340-345-350-353-355-220200-
Coastal Marine Observations


STATION/POSITION TIME  SKY/WX   TEMP    WIND        PRES    VSBY  WAVE
                                AIR SEA DIR/SP/G                  HT/PER
                 (UTC)          (F)     (DEG/KT/KT) (MB)    (MI)  (FT/S)
NY Harb Entrance 0050            57 56  190/  8/ 10 1021.4          3/ 8
20 S Fire Island 0050            56 53  210/  6/  6 1021.6          3/ 8
23 SSW Montauk P 0050            55 53  220/  8/ 10 1021.5          4/ 9
15 E Barnegat Li 0030               56                N/A           3/ 9
Hudson Canyon    0050            56 53  140/  2/  2 1021.4          3/ 9
Kings Point      0030            63 58  220/ 12/ 14 1022.1
Execution Rocks  NOT AVBL
Western LI Sound NOT AVBL
Central LI Sound 0015            60     210/ 10/ 12   N/A           1
Robbins Reef     0030            64     160/ 12/ 15 1021.6
$$


>>>>>>>>>>>>>>>>>>>>>>>>>>>> KEY <<<<<<<<<<<<<<<<<<<<<<<<<<<
>                                                          <
>     SKY/WX - Sky Condition/Present Weather               <
>     TMP    - Temperature in Fahrenheit                   <
>     DP     - Dew Point in Fahrenheit                     <
>     RH     - Relative Humidity in Percent                <
>     WIND   - Direction (from) and Speed in MPH           <
>     PRES   - Mean Sea Level Pressure (inches of Hg)      <
>     WCI    - Wind Chill Index                            <
>     VSB    - Visibility in Miles                         <
>     HX     - Heat Index                                  <
>     TC     - Temperature in Celsius                      <
>     VRB    - Varibale Wind Direction                     <
>                                                          <
>>>>>>>>>>>>>>>>>>>>>>>>>>>> KEY <<<<<<<<<<<<<<<<<<<<<<<<<<<




USA.gov is the U.S. government's official web portal to all federal, state and local government web resources and services.